User: anonymous   Login
Location: *
(42.5628°N, 2.3633°E)
Time: 12:39:14
(UTC+00:00)
Language:

Okean 1-7 Rocket - Orbit

View from above orbital plane
View from above orbital plane
View from above satellite
View from above satellite

Ground track
Ground track

The orbit data is extracted from the following two-line orbital elements,

1 23318U 94066B   20191.79867117 +.00000036 +00000-0 +16492-5 0  9997
2 23318 082.5400 211.1530 0023872 172.1218 188.0374 14.78873787387723
Epoch (UTC): 09 July 2020 19:10:05
Eccentricity: 0.0023872
inclination: 82.5400°
perigee height: 616 km
apogee height: 649 km
right ascension of ascending node: 211.1530°
argument of perigee: 172.1218°
revolutions per day: 14.78873787
mean anomaly at epoch: 188.0374°
orbit number at epoch: 38772

The dashed part of the orbit path shows where the satellite is in the earth's shadow,  

DLR